Total_Precipitation_Accumulation
0.00 0.00 0.01 0.01 0.01 0.01 0.03 0.06 0.09 0.12 0.10 0.12 0.23 0.49 0.69 0.82 1.08 1.08 1.12 1.28 1.42 1.55 1.84 2.21 2.49 3.07 3.67 4.01 4.40 4.53 4.48 4.32 4.05 3.62 3.26 3.00 2.75 2.59 2.35 2.18 2.08 1.97 1.89 1.98
0.01 0.03 0.02 0.01 0.01 0.02 0.04 0.07 0.09 0.14 0.13 0.17 0.33 0.54 0.80 0.82 0.92 0.99 0.91 0.97 1.15 1.52 1.76 2.24 2.48 2.69 3.18 3.69 4.13 4.40 4.51 4.34 3.94 3.48 3.19 3.01 2.93 2.59 2.28 2.22 2.20 2.02 2.05 2.05
0.01 0.02 0.02 0.01 0.02 0.04 0.06 0.07 0.09 0.10 0.12 0.24 0.35 0.73 0.98 0.87 0.84 0.89 0.90 0.97 1.14 1.60 2.03 2.26 2.39 2.52 2.77 3.20 3.49 3.59 3.72 3.66 3.44 3.40 3.29 3.12 3.06 2.68 2.50 2.48 2.44 2.26 2.24 2.18
0.01 0.01 0.02 0.03 0.04 0.04 0.08 0.06 0.05 0.07 0.14 0.34 0.38 0.83 1.25 1.08 0.93 1.00 1.08 1.05 1.32 1.65 1.67 1.76 2.03 2.31 2.52 2.75 3.07 3.30 3.33 3.25 3.12 3.14 3.05 2.85 2.61 2.47 2.52 2.71 2.65 2.39 2.17 1.98
0.03 0.03 0.03 0.04 0.04 0.04 0.06 0.05 0.06 0.09 0.16 0.32 0.40 0.61 1.10 1.13 1.17 1.08 1.10 1.23 1.44 1.42 1.40 1.47 1.66 1.95 2.06 2.35 2.61 2.88 3.12 3.18 3.07 3.04 2.91 2.85 2.67 2.59 2.56 2.48 2.37 2.15 1.92 1.66
0.04 0.04 0.04 0.03 0.03 0.04 0.05 0.06 0.12 0.18 0.31 0.65 0.52 0.52 0.94 1.11 1.00 0.92 0.98 1.03 1.22 1.22 1.23 1.39 1.53 1.73 1.82 1.95 2.08 2.21 2.44 2.67 2.75 2.75 2.68 2.60 2.46 2.37 2.26 2.07 1.87 1.67 1.53 1.31
0.09 0.10 0.08 0.05 0.05 0.06 0.06 0.09 0.39 0.74 0.98 1.03 0.56 0.60 1.04 0.90 0.72 0.73 0.88 0.90 0.85 0.90 0.95 1.15 1.25 1.34 1.45 1.53 1.58 1.69 1.91 2.20 2.28 2.23 2.22 2.22 2.15 2.07 1.94 1.85 1.69 1.48 1.29 1.06
0.16 0.21 0.12 0.07 0.07 0.07 0.08 0.09 0.34 0.62 0.75 0.82 0.67 1.01 1.45 0.97 0.74 0.78 0.81 0.78 0.73 0.73 0.71 0.84 1.02 1.20 1.26 1.27 1.33 1.44 1.69 1.86 1.90 1.81 1.87 1.93 1.89 1.88 1.76 1.78 1.58 1.34 1.19 1.10
0.11 0.11 0.07 0.07 0.10 0.10 0.09 0.08 0.14 0.28 0.37 0.59 0.83 1.12 1.17 0.72 0.63 0.72 0.73 0.71 0.74 0.73 0.69 0.72 0.77 0.91 0.97 0.99 1.06 1.16 1.46 1.66 1.71 1.67 1.70 1.74 1.76 1.69 1.54 1.46 1.36 1.18 1.16 1.13
0.04 0.06 0.08 0.07 0.08 0.10 0.10 0.11 0.16 0.22 0.35 0.57 0.79 1.09 1.24 0.86 0.70 0.52 0.46 0.49 0.45 0.46 0.49 0.52 0.50 0.55 0.67 0.81 0.96 1.07 1.17 1.35 1.49 1.48 1.47 1.46 1.57 1.51 1.39 1.36 1.23 1.04 0.97 0.99
0.04 0.04 0.07 0.08 0.11 0.13 0.13 0.11 0.13 0.17 0.20 0.38 0.79 1.02 0.82 0.68 0.57 0.52 0.47 0.50 0.42 0.35 0.35 0.40 0.45 0.50 0.63 0.74 0.85 0.97 1.02 1.14 1.26 1.29 1.32 1.31 1.28 1.32 1.31 1.21 1.07 1.02 1.00 0.96
0.04 0.04 0.06 0.13 0.18 0.16 0.14 0.11 0.13 0.17 0.17 0.24 0.43 0.64 0.51 0.57 0.57 0.50 0.48 0.55 0.56 0.50 0.43 0.43 0.50 0.54 0.64 0.73 0.78 0.81 0.85 0.95 1.09 1.23 1.40 1.46 1.39 1.34 1.25 1.10 1.02 1.02 1.01 0.99
0.05 0.05 0.10 0.28 0.40 0.26 0.16 0.12 0.12 0.14 0.11 0.19 0.39 0.62 0.41 0.36 0.45 0.59 0.81 0.99 0.79 0.60 0.50 0.52 0.55 0.50 0.54 0.64 0.72 0.68 0.70 0.82 0.97 1.19 1.51 1.65 1.60 1.47 1.30 1.12 0.99 0.96 0.97 1.00
0.08 0.06 0.10 0.30 0.42 0.36 0.26 0.17 0.13 0.11 0.13 0.17 0.25 0.50 0.45 0.41 0.45 0.59 0.74 0.71 0.71 0.64 0.55 0.60 0.56 0.59 0.61 0.59 0.66 0.67 0.71 0.76 0.90 1.08 1.29 1.39 1.29 1.20 1.13 1.00 0.90 0.87 0.89 0.95
0.12 0.08 0.07 0.12 0.21 0.24 0.24 0.22 0.18 0.14 0.12 0.21 0.25 0.36 0.43 0.43 0.54 0.67 0.80 0.78 0.76 0.61 0.48 0.49 0.46 0.51 0.56 0.56 0.63 0.60 0.55 0.54 0.65 0.82 0.92 1.01 0.98 0.91 0.88 0.86 0.84 0.83 0.91 0.92
0.17 0.17 0.14 0.15 0.19 0.24 0.27 0.25 0.18 0.13 0.11 0.16 0.24 0.37 0.47 0.53 0.61 0.65 0.60 0.52 0.49 0.41 0.31 0.31 0.42 0.48 0.46 0.44 0.46 0.39 0.40 0.47 0.57 0.68 0.77 0.90 0.99 0.97 0.90 0.87 0.88 0.87 0.94 0.97
0.22 0.26 0.25 0.24 0.23 0.24 0.34 0.33 0.24 0.15 0.14 0.20 0.32 0.47 0.61 0.51 0.50 0.55 0.50 0.48 0.48 0.42 0.27 0.23 0.29 0.37 0.39 0.40 0.36 0.37 0.42 0.50 0.60 0.71 0.80 0.91 1.03 1.08 1.03 0.94 0.98 0.99 1.04 1.10
0.38 0.39 0.31 0.29 0.40 0.50 0.36 0.30 0.29 0.28 0.26 0.27 0.39 0.41 0.51 0.51 0.56 0.64 0.59 0.54 0.42 0.35 0.28 0.22 0.22 0.26 0.32 0.38 0.42 0.47 0.54 0.63 0.70 0.78 0.88 1.03 1.12 1.11 1.10 1.12 1.16 1.19 1.23 1.26
0.32 0.48 0.45 0.45 0.57 0.50 0.44 0.32 0.35 0.40 0.53 0.53 0.61 0.55 0.50 0.50 0.56 0.61 0.51 0.43 0.40 0.32 0.29 0.27 0.25 0.30 0.37 0.42 0.44 0.58 0.71 0.83 0.91 0.93 0.98 1.09 1.21 1.24 1.27 1.32 1.33 1.37 1.42 1.37
0.33 0.48 0.60 0.57 0.70 0.70 0.60 0.47 0.46 0.57 0.97 0.80 0.72 0.70 0.60 0.57 0.65 0.65 0.57 0.51 0.44 0.36 0.34 0.34 0.33 0.40 0.48 0.56 0.62 0.72 0.82 0.91 1.04 1.10 1.20 1.36 1.51 1.53 1.54 1.63 1.69 1.64 1.57 1.48
0.60 0.69 0.72 0.71 0.76 0.81 0.71 0.66 0.67 1.04 1.29 0.98 0.82 0.78 0.75 0.81 0.80 0.74 0.64 0.59 0.51 0.43 0.42 0.40 0.39 0.46 0.60 0.71 0.81 0.93 1.07 1.16 1.13 1.20 1.35 1.57 1.71 1.79 1.84 1.94 1.97 1.94 1.91 1.88
0.77 0.85 0.84 0.84 1.00 1.14 0.81 0.77 1.13 1.36 1.15 1.16 1.12 1.04 0.91 0.84 0.78 0.72 0.64 0.60 0.53 0.49 0.51 0.50 0.49 0.60 0.74 0.87 0.93 1.04 1.11 1.13 1.17 1.25 1.39 1.52 1.66 1.71 1.78 1.99 2.06 2.10 2.11 2.05
0.78 0.89 0.96 1.05 1.17 1.09 0.87 0.93 1.12 1.24 1.38 1.30 1.21 1.20 1.02 0.94 0.82 0.70 0.61 0.56 0.51 0.48 0.50 0.52 0.56 0.74 0.91 1.02 1.11 1.18 1.13 1.21 1.27 1.34 1.47 1.59 1.68 1.76 1.85 1.89 1.88 1.91 1.97 1.97
0.86 0.78 0.97 1.17 1.23 1.15 0.99 0.84 0.81 0.96 1.07 1.03 0.99 1.01 0.97 0.93 0.86 0.74 0.61 0.51 0.48 0.46 0.41 0.45 0.55 0.66 0.78 0.87 0.97 1.11 1.20 1.30 1.37 1.43 1.48 1.56 1.68 1.71 1.74 1.86 1.93 1.98 2.07 2.14
1.02 0.89 1.10 1.36 1.24 1.07 1.13 1.06 0.95 1.01 1.08 0.99 0.89 0.84 0.84 0.82 0.79 0.66 0.58 0.51 0.45 0.44 0.42 0.47 0.57 0.64 0.70 0.75 0.83 0.92 1.02 1.15 1.25 1.32 1.38 1.43 1.48 1.56 1.64 1.70 1.77 1.77 1.83 1.81
1.05 1.04 1.30 1.53 1.34 1.23 1.23 1.09 0.98 1.04 1.00 1.00 1.00 0.96 0.77 0.69 0.72 0.67 0.59 0.51 0.48 0.49 0.50 0.53 0.57 0.59 0.63 0.68 0.80 0.90 0.99 1.14 1.28 1.37 1.39 1.35 1.34 1.39 1.45 1.50 1.48 1.44 1.36 1.32